Time,TemperatureF,DewpointF,PressureIn,WindDirection,WindDirectionDegrees,WindSpeedMPH,WindSpeedGustMPH,Humidity,HourlyPrecipIn,Conditions,Clouds,dailyrainin,SolarRadiationWatts/m^2,SoftwareType,DateUTC
2013-02-18 00:02:00,23.0,9.0,30.47,SW,236,4.0,6.0,55,0.00,,,0.00,0.000000,,2013-02-18 05:02:00,
2013-02-18 00:11:00,23.0,9.0,30.47,SW,236,4.0,6.0,55,0.00,,,0.00,0.000000,,2013-02-18 05:11:00,
2013-02-18 00:42:00,22.0,14.0,30.48,SSW,209,1.0,6.0,70,0.00,,,0.00,0.000000,,2013-02-18 05:42:00,
2013-02-18 00:52:00,22.0,14.0,30.48,SSW,209,1.0,6.0,70,0.00,,,0.00,0.000000,,2013-02-18 05:52:00,
2013-02-18 01:02:00,22.0,14.0,30.48,SSW,209,1.0,6.0,70,0.00,,,0.00,0.000000,,2013-02-18 06:02:00,
2013-02-18 01:11:00,22.0,14.0,30.48,SSW,209,1.0,6.0,70,0.00,,,0.00,0.000000,,2013-02-18 06:11:00,
2013-02-18 01:42:00,21.0,14.0,30.50,SSW,195,4.0,5.0,73,0.00,,,0.00,0.000000,,2013-02-18 06:42:00,
2013-02-18 01:52:00,21.0,14.0,30.50,SSW,195,4.0,5.0,73,0.00,,,0.00,0.000000,,2013-02-18 06:52:00,
2013-02-18 02:02:00,21.0,14.0,30.50,SSW,195,4.0,5.0,73,0.00,,,0.00,0.000000,,2013-02-18 07:02:00,
2013-02-18 02:11:00,21.0,14.0,30.50,SSW,195,4.0,5.0,73,0.00,,,0.00,0.000000,,2013-02-18 07:11:00,
2013-02-18 02:42:00,20.0,16.0,30.50,ESE,117,2.0,3.0,84,0.00,,,0.00,0.000000,,2013-02-18 07:42:00,
2013-02-18 02:52:00,20.0,16.0,30.50,ESE,117,2.0,3.0,84,0.00,,,0.00,0.000000,,2013-02-18 07:52:00,
2013-02-18 03:02:00,20.0,16.0,30.50,ESE,117,2.0,3.0,84,0.00,,,0.00,0.000000,,2013-02-18 08:02:00,
2013-02-18 03:11:00,20.0,16.0,30.50,ESE,117,2.0,3.0,84,0.00,,,0.00,0.000000,,2013-02-18 08:11:00,
2013-02-18 03:42:00,19.0,16.0,30.51,ENE,62,2.0,3.0,87,0.00,,,0.00,0.000000,,2013-02-18 08:42:00,
2013-02-18 03:52:00,19.0,16.0,30.51,ENE,62,2.0,3.0,87,0.00,,,0.00,0.000000,,2013-02-18 08:52:00,
2013-02-18 04:03:00,19.0,16.0,30.51,ENE,62,2.0,3.0,87,0.00,,,0.00,0.000000,,2013-02-18 09:03:00,
2013-02-18 04:11:00,19.0,16.0,30.51,ENE,62,2.0,3.0,87,0.00,,,0.00,0.000000,,2013-02-18 09:11:00,
2013-02-18 04:42:00,19.0,16.0,30.52,East,93,2.0,3.0,87,0.00,,,0.00,0.000000,,2013-02-18 09:42:00,
2013-02-18 04:52:00,19.0,16.0,30.52,East,93,2.0,3.0,87,0.00,,,0.00,0.000000,,2013-02-18 09:52:00,
2013-02-18 05:01:00,19.0,16.0,30.52,East,93,2.0,3.0,87,0.00,,,0.00,0.000000,,2013-02-18 10:01:00,
2013-02-18 05:11:00,19.0,16.0,30.52,East,93,2.0,3.0,87,0.00,,,0.00,0.000000,,2013-02-18 10:11:00,
2013-02-18 05:42:00,18.0,16.0,30.54,SE,133,3.0,4.0,91,0.00,,,0.00,0.000000,,2013-02-18 10:42:00,
2013-02-18 05:53:00,18.0,16.0,30.54,SE,133,3.0,4.0,91,0.00,,,0.00,0.000000,,2013-02-18 10:53:00,
2013-02-18 06:02:00,18.0,16.0,30.54,SE,133,3.0,4.0,91,0.00,,,0.00,0.000000,,2013-02-18 11:02:00,
2013-02-18 06:12:00,18.0,16.0,30.54,SE,133,3.0,4.0,91,0.00,,,0.00,0.000000,,2013-02-18 11:12:00,
2013-02-18 06:43:00,17.0,15.0,30.56,ESE,123,2.0,3.0,91,0.00,,,0.00,0.000000,,2013-02-18 11:43:00,
2013-02-18 06:53:00,17.0,15.0,30.56,ESE,123,2.0,3.0,91,0.00,,,0.00,0.000000,,2013-02-18 11:53:00,
2013-02-18 07:02:00,17.0,15.0,30.56,ESE,123,2.0,3.0,91,0.00,,,0.00,0.000000,,2013-02-18 12:02:00,
2013-02-18 07:12:00,17.0,15.0,30.56,ESE,123,2.0,3.0,91,0.00,,,0.00,0.000000,,2013-02-18 12:12:00,
2013-02-18 07:42:00,18.0,16.0,30.57,SE,130,2.0,4.0,91,0.00,,,0.00,0.000000,,2013-02-18 12:42:00,
2013-02-18 07:54:00,18.0,16.0,30.57,SE,130,2.0,4.0,91,0.00,,,0.00,0.000000,,2013-02-18 12:54:00,
2013-02-18 08:03:00,18.0,16.0,30.57,SE,130,2.0,4.0,91,0.00,,,0.00,0.000000,,2013-02-18 13:03:00,
2013-02-18 08:12:00,18.0,16.0,30.57,SE,130,2.0,4.0,91,0.00,,,0.00,0.000000,,2013-02-18 13:12:00,
2013-02-18 08:42:00,27.0,22.0,30.59,SSE,161,3.0,6.0,80,0.00,,,0.00,51.000000,,2013-02-18 13:42:00,
2013-02-18 08:53:00,27.0,22.0,30.59,SSE,161,3.0,6.0,80,0.00,,,0.00,51.000000,,2013-02-18 13:53:00,
2013-02-18 09:02:00,27.0,22.0,30.59,SSE,161,3.0,6.0,80,0.00,,,0.00,51.000000,,2013-02-18 14:02:00,
2013-02-18 09:12:00,27.0,22.0,30.59,SSE,161,3.0,6.0,80,0.00,,,0.00,51.000000,,2013-02-18 14:12:00,
2013-02-18 09:42:00,38.0,21.0,30.61,East,100,2.0,5.0,50,0.00,,,0.00,260.000000,,2013-02-18 14:42:00,
2013-02-18 09:54:00,38.0,21.0,30.61,East,100,2.0,5.0,50,0.00,,,0.00,260.000000,,2013-02-18 14:54:00,
2013-02-18 10:42:00,43.0,17.0,30.60,SSW,209,3.0,7.0,34,0.00,,,0.00,480.000000,,2013-02-18 15:42:00,
2013-02-18 10:53:00,43.0,17.0,30.60,SSW,209,3.0,7.0,34,0.00,,,0.00,480.000000,,2013-02-18 15:53:00,
2013-02-18 11:12:00,43.0,17.0,30.60,SSW,209,3.0,7.0,34,0.00,,,0.00,480.000000,,2013-02-18 16:12:00,
2013-02-18 11:43:00,49.0,14.0,30.60,South,176,7.0,12.0,24,0.00,,,0.00,647.000000,,2013-02-18 16:43:00,
2013-02-18 11:53:00,49.0,14.0,30.60,South,176,7.0,12.0,24,0.00,,,0.00,647.000000,,2013-02-18 16:53:00,
2013-02-18 12:12:00,49.0,14.0,30.60,South,176,7.0,12.0,24,0.00,,,0.00,647.000000,,2013-02-18 17:12:00,
2013-02-18 12:43:00,50.0,13.0,30.57,South,172,9.0,15.0,22,0.00,,,0.00,748.000000,,2013-02-18 17:43:00,
2013-02-18 12:53:00,50.0,13.0,30.57,South,172,9.0,15.0,22,0.00,,,0.00,748.000000,,2013-02-18 17:53:00,
2013-02-18 13:03:00,50.0,13.0,30.57,South,172,9.0,15.0,22,0.00,,,0.00,748.000000,,2013-02-18 18:03:00,
2013-02-18 13:12:00,50.0,13.0,30.57,South,172,9.0,15.0,22,0.00,,,0.00,748.000000,,2013-02-18 18:12:00,
2013-02-18 13:43:00,53.0,14.0,30.54,South,169,7.0,16.0,21,0.00,,,0.00,779.000000,,2013-02-18 18:43:00,
2013-02-18 13:53:00,53.0,14.0,30.54,South,169,7.0,16.0,21,0.00,,,0.00,779.000000,,2013-02-18 18:53:00,
2013-02-18 14:03:00,53.0,14.0,30.54,South,169,7.0,16.0,21,0.00,,,0.00,779.000000,,2013-02-18 19:03:00,
2013-02-18 14:13:00,53.0,14.0,30.54,South,169,7.0,16.0,21,0.00,,,0.00,779.000000,,2013-02-18 19:13:00,
2013-02-18 14:43:00,55.0,18.0,30.51,SSE,162,11.0,19.0,23,0.00,,,0.00,716.000000,,2013-02-18 19:43:00,
2013-02-18 14:53:00,55.0,18.0,30.51,SSE,162,11.0,19.0,23,0.00,,,0.00,716.000000,,2013-02-18 19:53:00,
2013-02-18 15:03:00,55.0,18.0,30.51,SSE,162,11.0,19.0,23,0.00,,,0.00,716.000000,,2013-02-18 20:03:00,
2013-02-18 15:13:00,55.0,18.0,30.51,SSE,162,11.0,19.0,23,0.00,,,0.00,716.000000,,2013-02-18 20:13:00,
2013-02-18 15:43:00,55.0,18.0,30.50,South,179,10.0,20.0,23,0.00,,,0.00,656.000000,,2013-02-18 20:43:00,
2013-02-18 15:53:00,55.0,18.0,30.50,South,179,10.0,20.0,23,0.00,,,0.00,656.000000,,2013-02-18 20:53:00,
2013-02-18 16:03:00,55.0,18.0,30.50,South,179,10.0,20.0,23,0.00,,,0.00,656.000000,,2013-02-18 21:03:00,
2013-02-18 16:12:00,55.0,18.0,30.50,South,179,10.0,20.0,23,0.00,,,0.00,656.000000,,2013-02-18 21:12:00,
2013-02-18 16:43:00,55.0,21.0,30.49,South,174,11.0,21.0,26,0.00,,,0.00,382.000000,,2013-02-18 21:43:00,
2013-02-18 16:53:00,55.0,21.0,30.49,South,174,11.0,21.0,26,0.00,,,0.00,382.000000,,2013-02-18 21:53:00,
2013-02-18 17:03:00,55.0,21.0,30.49,South,174,11.0,21.0,26,0.00,,,0.00,382.000000,,2013-02-18 22:03:00,
2013-02-18 17:13:00,55.0,21.0,30.49,South,174,11.0,21.0,26,0.00,,,0.00,382.000000,,2013-02-18 22:13:00,
2013-02-18 17:44:00,52.0,21.0,30.49,South,177,8.0,19.0,29,0.00,,,0.00,230.000000,,2013-02-18 22:44:00,
2013-02-18 17:54:00,52.0,21.0,30.49,South,177,8.0,19.0,29,0.00,,,0.00,230.000000,,2013-02-18 22:54:00,
2013-02-18 18:03:00,52.0,21.0,30.49,South,177,8.0,19.0,29,0.00,,,0.00,230.000000,,2013-02-18 23:03:00,
2013-02-18 18:12:00,52.0,21.0,30.49,South,177,8.0,19.0,29,0.00,,,0.00,230.000000,,2013-02-18 23:12:00,
2013-02-18 18:43:00,46.0,22.0,30.50,SSE,161,6.0,15.0,38,0.00,,,0.00,69.000000,,2013-02-18 23:43:00,
2013-02-18 18:54:00,46.0,22.0,30.50,SSE,161,6.0,15.0,38,0.00,,,0.00,69.000000,,2013-02-18 23:54:00,
2013-02-18 19:03:00,46.0,22.0,30.50,SSE,161,6.0,15.0,38,0.00,,,0.00,69.000000,,2013-02-19 00:03:00,
2013-02-18 19:44:00,44.0,21.0,30.49,SSE,160,8.0,12.0,40,0.00,,,0.00,1.000000,,2013-02-19 00:44:00,
2013-02-18 19:55:00,44.0,21.0,30.49,SSE,160,8.0,12.0,40,0.00,,,0.00,1.000000,,2013-02-19 00:55:00,
2013-02-18 20:03:00,44.0,21.0,30.49,SSE,160,8.0,12.0,40,0.00,,,0.00,1.000000,,2013-02-19 01:03:00,
2013-02-18 20:14:00,44.0,21.0,30.49,SSE,160,8.0,12.0,40,0.00,,,0.00,1.000000,,2013-02-19 01:14:00,
2013-02-18 20:45:00,43.0,22.0,30.49,SSE,164,8.0,13.0,42,0.00,,,0.00,0.000000,,2013-02-19 01:45:00,
2013-02-18 20:57:00,43.0,22.0,30.49,SSE,164,8.0,13.0,42,0.00,,,0.00,0.000000,,2013-02-19 01:57:00,
2013-02-18 21:04:00,43.0,22.0,30.49,SSE,164,8.0,13.0,42,0.00,,,0.00,0.000000,,2013-02-19 02:04:00,
2013-02-18 21:14:00,43.0,22.0,30.49,SSE,164,8.0,13.0,42,0.00,,,0.00,0.000000,,2013-02-19 02:14:00,
2013-02-18 21:44:00,43.0,23.0,30.48,SSE,168,9.0,17.0,44,0.00,,,0.00,0.000000,,2013-02-19 02:44:00,
2013-02-18 22:07:00,43.0,23.0,30.48,SSE,168,9.0,17.0,44,0.00,,,0.00,0.000000,,2013-02-19 03:07:00,
2013-02-18 22:15:00,43.0,23.0,30.48,SSE,168,9.0,17.0,44,0.00,,,0.00,0.000000,,2013-02-19 03:15:00,
2013-02-18 22:45:00,41.0,22.0,30.47,South,174,8.0,17.0,46,0.00,,,0.00,0.000000,,2013-02-19 03:45:00,
2013-02-18 22:55:00,41.0,22.0,30.47,South,174,8.0,17.0,46,0.00,,,0.00,0.000000,,2013-02-19 03:55:00,
2013-02-18 23:03:00,41.0,22.0,30.47,South,174,8.0,17.0,46,0.00,,,0.00,0.000000,,2013-02-19 04:03:00,
2013-02-18 23:14:00,41.0,22.0,30.47,South,174,8.0,17.0,46,0.00,,,0.00,0.000000,,2013-02-19 04:14:00,
2013-02-18 23:45:00,40.0,22.0,30.45,SSE,165,10.0,19.0,48,0.00,,,0.00,0.000000,,2013-02-19 04:45:00,
2013-02-18 23:56:00,40.0,22.0,30.45,SSE,165,10.0,19.0,48,0.00,,,0.00,0.000000,,2013-02-19 04:56:00,